Total_Precipitation_Accumulation
0.10 0.09 0.07 0.07 0.07 0.10 0.14 0.18 0.20 0.21 0.21 0.20 0.18 0.15 0.12 0.12 0.15 0.18 0.21 0.27 0.33 0.42 0.51 0.51 0.50 0.62 0.70 0.65 0.63 0.64 0.68 0.74 0.73 0.70 0.83 0.87 0.76 0.57 0.50 0.51 0.52 0.53 0.44
0.07 0.07 0.06 0.07 0.08 0.08 0.09 0.12 0.18 0.23 0.23 0.22 0.20 0.17 0.13 0.10 0.12 0.14 0.16 0.21 0.29 0.39 0.55 0.71 0.72 0.67 0.65 0.64 0.63 0.64 0.70 0.81 0.82 0.73 0.78 0.86 0.82 0.72 0.61 0.52 0.45 0.46 0.49
0.07 0.09 0.10 0.11 0.11 0.10 0.10 0.09 0.11 0.15 0.20 0.22 0.21 0.20 0.17 0.14 0.13 0.12 0.13 0.15 0.20 0.25 0.38 0.62 0.80 0.94 0.86 0.67 0.58 0.56 0.64 0.79 0.88 0.83 0.83 0.95 0.98 0.88 0.72 0.56 0.46 0.43 0.42
0.12 0.13 0.14 0.16 0.16 0.14 0.14 0.15 0.14 0.13 0.16 0.19 0.23 0.24 0.22 0.20 0.17 0.15 0.15 0.15 0.16 0.19 0.26 0.36 0.49 0.70 0.87 0.92 0.79 0.66 0.66 0.73 0.82 0.85 0.96 1.18 1.21 1.09 0.84 0.66 0.58 0.49 0.44
0.29 0.32 0.34 0.29 0.27 0.26 0.26 0.26 0.27 0.25 0.25 0.30 0.34 0.33 0.31 0.28 0.20 0.20 0.22 0.19 0.21 0.20 0.22 0.27 0.29 0.38 0.51 0.69 0.80 0.86 0.84 0.77 0.80 0.87 1.10 1.52 1.55 1.29 0.93 0.74 0.67 0.64 0.54
0.46 0.52 0.55 0.56 0.53 0.48 0.44 0.39 0.40 0.42 0.48 0.52 0.53 0.54 0.50 0.40 0.33 0.28 0.26 0.25 0.28 0.31 0.32 0.32 0.29 0.27 0.31 0.41 0.54 0.68 0.83 0.86 0.85 0.90 1.09 1.40 1.55 1.44 1.20 0.99 0.77 0.64 0.58
0.53 0.54 0.56 0.57 0.56 0.58 0.60 0.59 0.57 0.59 0.62 0.64 0.64 0.66 0.64 0.63 0.52 0.40 0.31 0.30 0.32 0.36 0.42 0.46 0.33 0.22 0.29 0.34 0.41 0.48 0.55 0.66 0.78 0.87 0.99 1.19 1.47 1.61 1.46 1.09 0.92 0.82 0.66
0.56 0.58 0.61 0.64 0.68 0.69 0.65 0.59 0.58 0.59 0.60 0.60 0.60 0.61 0.67 0.65 0.58 0.45 0.36 0.34 0.37 0.39 0.43 0.47 0.45 0.36 0.35 0.39 0.44 0.42 0.41 0.42 0.49 0.62 0.74 0.97 1.26 1.58 1.73 1.49 1.28 1.12 0.92
0.55 0.60 0.67 0.74 0.78 0.68 0.58 0.57 0.57 0.57 0.53 0.49 0.47 0.50 0.58 0.63 0.58 0.47 0.44 0.40 0.40 0.41 0.43 0.47 0.50 0.46 0.37 0.31 0.36 0.37 0.37 0.37 0.37 0.43 0.54 0.72 0.97 1.28 1.63 1.75 1.46 1.12 0.96
0.53 0.55 0.58 0.61 0.70 0.74 0.66 0.65 0.64 0.64 0.58 0.53 0.48 0.50 0.53 0.64 0.64 0.50 0.47 0.44 0.45 0.48 0.59 0.63 0.57 0.49 0.41 0.28 0.30 0.35 0.33 0.32 0.38 0.40 0.42 0.49 0.65 0.90 1.24 1.43 1.43 1.13 0.89
0.36 0.36 0.39 0.45 0.51 0.54 0.58 0.60 0.62 0.62 0.59 0.56 0.51 0.49 0.50 0.56 0.63 0.51 0.44 0.44 0.46 0.55 0.63 0.73 0.70 0.55 0.40 0.30 0.27 0.30 0.27 0.32 0.40 0.44 0.45 0.49 0.63 0.80 0.97 1.19 1.32 1.23 0.97
0.29 0.30 0.33 0.35 0.37 0.37 0.45 0.50 0.54 0.56 0.55 0.53 0.50 0.46 0.48 0.46 0.44 0.46 0.35 0.32 0.39 0.51 0.63 0.80 0.85 0.69 0.52 0.38 0.30 0.26 0.24 0.25 0.31 0.37 0.39 0.42 0.49 0.62 0.80 1.06 1.28 1.29 1.14
0.29 0.31 0.31 0.30 0.30 0.33 0.38 0.40 0.41 0.44 0.42 0.38 0.35 0.39 0.44 0.46 0.40 0.33 0.27 0.21 0.26 0.43 0.58 0.82 0.93 0.80 0.67 0.52 0.42 0.36 0.31 0.26 0.29 0.32 0.30 0.30 0.35 0.47 0.68 1.02 1.36 1.48 1.38
0.28 0.28 0.27 0.28 0.30 0.35 0.42 0.44 0.46 0.44 0.38 0.32 0.31 0.36 0.39 0.41 0.40 0.39 0.37 0.28 0.28 0.40 0.48 0.61 0.76 0.82 0.75 0.69 0.58 0.47 0.38 0.34 0.33 0.34 0.33 0.37 0.45 0.56 0.69 0.84 1.15 1.39 1.41
0.32 0.30 0.28 0.29 0.32 0.34 0.38 0.41 0.37 0.37 0.30 0.28 0.30 0.38 0.40 0.40 0.34 0.30 0.36 0.38 0.39 0.44 0.46 0.58 0.75 0.87 0.89 0.86 0.83 0.72 0.61 0.54 0.48 0.45 0.51 0.52 0.58 0.64 0.67 0.77 0.97 1.17 1.18
0.39 0.32 0.29 0.30 0.33 0.36 0.36 0.36 0.30 0.21 0.19 0.18 0.19 0.24 0.28 0.25 0.18 0.14 0.19 0.24 0.26 0.29 0.35 0.52 0.69 0.87 0.99 1.04 1.07 1.01 0.90 0.81 0.72 0.69 0.71 0.68 0.67 0.72 0.73 0.75 0.88 1.03 1.04
0.37 0.33 0.29 0.28 0.31 0.31 0.31 0.35 0.38 0.32 0.17 0.13 0.15 0.16 0.19 0.15 0.13 0.14 0.16 0.20 0.20 0.19 0.23 0.42 0.57 0.73 0.91 1.05 1.09 1.06 0.98 0.96 0.96 0.94 0.93 0.89 0.82 0.81 0.84 0.82 0.83 0.95 1.01
0.32 0.31 0.29 0.30 0.31 0.29 0.27 0.29 0.35 0.43 0.41 0.31 0.22 0.17 0.18 0.15 0.18 0.21 0.20 0.21 0.20 0.19 0.23 0.38 0.52 0.66 0.81 0.98 1.04 1.04 1.07 1.08 1.08 1.04 1.05 1.05 1.01 0.95 0.94 0.91 0.87 0.88 0.97
0.29 0.25 0.22 0.21 0.24 0.26 0.27 0.29 0.33 0.37 0.44 0.50 0.42 0.25 0.22 0.21 0.28 0.35 0.28 0.29 0.32 0.31 0.32 0.38 0.46 0.57 0.75 0.92 1.06 1.10 1.13 1.12 1.10 1.12 1.11 1.12 1.14 1.08 0.98 0.97 1.01 0.99 0.97
0.22 0.21 0.15 0.12 0.15 0.23 0.29 0.31 0.32 0.36 0.43 0.53 0.50 0.34 0.29 0.31 0.47 0.57 0.45 0.46 0.49 0.46 0.47 0.52 0.54 0.61 0.78 0.94 1.07 1.16 1.21 1.18 1.14 1.15 1.16 1.16 1.16 1.13 1.03 1.02 1.09 1.07 0.94
0.17 0.15 0.13 0.09 0.15 0.24 0.29 0.30 0.31 0.38 0.47 0.56 0.52 0.34 0.29 0.38 0.63 0.74 0.69 0.68 0.67 0.64 0.63 0.60 0.56 0.59 0.74 0.90 1.01 1.12 1.21 1.20 1.14 1.11 1.17 1.22 1.15 1.10 1.05 1.06 1.09 1.13 1.08
0.16 0.16 0.15 0.14 0.21 0.26 0.25 0.32 0.42 0.50 0.55 0.60 0.55 0.41 0.39 0.52 0.73 0.79 0.75 0.74 0.74 0.72 0.68 0.64 0.61 0.63 0.74 0.88 0.95 1.05 1.19 1.20 1.16 1.15 1.21 1.29 1.24 1.14 1.10 1.07 1.07 1.15 1.20
0.22 0.21 0.19 0.21 0.27 0.27 0.29 0.38 0.50 0.56 0.57 0.59 0.58 0.58 0.59 0.68 0.74 0.78 0.76 0.72 0.70 0.72 0.74 0.76 0.77 0.77 0.83 0.93 0.97 1.05 1.19 1.19 1.15 1.16 1.21 1.24 1.22 1.17 1.14 1.10 1.07 1.13 1.17
0.18 0.21 0.20 0.20 0.22 0.26 0.32 0.35 0.41 0.46 0.49 0.51 0.54 0.56 0.58 0.62 0.67 0.68 0.68 0.69 0.70 0.73 0.76 0.83 0.85 0.86 0.89 0.93 0.95 0.96 1.05 1.04 0.97 0.96 1.00 1.06 1.08 1.08 1.07 1.05 1.01 1.02 1.07
0.19 0.21 0.22 0.23 0.22 0.24 0.29 0.35 0.41 0.45 0.49 0.50 0.50 0.53 0.56 0.56 0.59 0.64 0.68 0.70 0.69 0.71 0.71 0.72 0.76 0.79 0.78 0.74 0.76 0.80 0.84 0.79 0.73 0.73 0.83 0.93 0.94 0.92 0.92 0.90 0.89 0.94 1.01
0.20 0.24 0.28 0.32 0.31 0.30 0.33 0.40 0.45 0.46 0.47 0.47 0.50 0.53 0.59 0.61 0.61 0.65 0.67 0.66 0.65 0.67 0.65 0.67 0.69 0.65 0.64 0.63 0.59 0.60 0.58 0.54 0.55 0.59 0.64 0.73 0.80 0.80 0.81 0.83 0.81 0.86 0.91